Regional Weather Roundup
Issued by NWS

Home | Current Version | Previous Version | Graphics & Text | Print | Product List | Glossary On
Versions: 1 2 3 4 5 6 7 8 9 10 11 12 13 14 15 16 17 18 19 20 21 22 23 24 25 26 27 28 29 30 31 32 33 34 35 36 37 38 39 40 41 42 43 44 45 46 47 48 49 50
000
ASUS45 KSLC 011110
RWRUT

UTAH REGIONAL WEATHER ROUNDUP
NATIONAL WEATHER SERVICE SALT LAKE CITY UT
500 AM MDT MON JUN 01 2015

UTZ001>011-023>025-011200-

NORTHERN UTAH

CITY           SKY/WX    TMP DP  RH WIND       PRES   REMARKS
BRIGHAM CITY   MOCLDY    65  49  55 W5        29.89S
HILL AFB       PTCLDY    65  38  36 E14       29.92F
LOGAN          CLEAR     56  51  84 CALM      29.92F
OGDEN          MOCLDY    63  44  50 S7        29.90F
PROVO AIRPORT  PTCLDY    64  45  48 S12       29.95S
SALT LAKE CITY PTCLDY    70  42  36 SE10      29.89S
VERNAL         PTCLDY    60  42  51 CALM      30.05F
WENDOVER       CLEAR     64  45  48 CALM      29.87S
HEBER CITY     PTCLDY    46  41  81 CALM      30.03F
WEST JORDAN    CLEAR     70  41  35 SE13      29.93S

$$

UTZ012>022-026-027-011200-

SOUTHERN/CENTRAL UTAH

CITY           SKY/WX    TMP DP  RH WIND       PRES   REMARKS
BLANDING       CLEAR     58  38  48 N5        30.19R
BRYCE CANYON   PTCLDY    38  31  76 W3        30.22F
CEDAR CITY     CLEAR     53  37  54 CALM      30.05S
DELTA          PTCLDY    64  29  27 S10       29.98R
HANKSVILLE     CLEAR     55  32  41 CALM      30.00S
MILFORD        CLEAR     60  35  39 SW15      30.00S
MOAB/CYNLANDS  CLEAR     70  41  34 SE8       29.98R
PRICE          PTCLDY    59  38  45 CALM      30.07S
ST GEORGE      MOSUNNY   73  30  20 SE12      29.90S

$$

REGIONAL REPORTS     COLORADO/ARIZONA

CITY           SKY/WX    TMP DP  RH WIND       PRES   REMARKS
CRAIG, CO      CLEAR     47  41  80 SW7       30.17R
GRAND JUNCTION PTCLDY    65  42  43 E17       30.06R
RIFLE          PTCLDY    51  46  83 E5        30.14S
MONTROSE       PTCLDY    53  40  61 S8        30.16S
CORTEZ         PTCLDY    57  41  55 NW5       30.14S
PAGE, AZ       CLEAR     71  34  25 CALM      30.00R
GRAND CANYON   CLEAR     40  34  79 CALM      30.18F
KINGMAN        CLEAR     67  29  24 SE10      29.95R
FLAGSTAFF      CLEAR     43  33  68 CALM      30.23S

$$

REGIONAL REPORTS    NEVADA/IDAHO/WYOMING

CITY           SKY/WX    TMP DP  RH WIND       PRES   REMARKS
LAS VEGAS, NV  CLEAR     81  32  17 S16       29.77S
ELY            CLEAR     55  40  56 S12       30.02F
ELKO           PTCLDY    56  43  61 E6        29.92F
POCATELLO, ID  CLEAR     61  49  64 NW9       29.91F
BURLEY         CLEAR     56  47  71 CALM      29.85F
EVANSTON, WY   PTCLDY    56  36  47 SE8       30.11F
ROCK SPRINGS   PTCLDY    58  38  47 SE9       30.11F
KEMMERER       MOCLDY    46  41  81 N8        30.14S

$$


USA.gov is the U.S. government's official web portal to all federal, state and local government web resources and services.